Location: Plum Point
(34.9795°N, 89.9548°W)
Time: 03:04:39
(UTC+00:00)

ISS - Visible Passes

Search period start: 15 December 2025 00:00
Search period end: 25 December 2025 00:00
Orbit: 416 x 420 km, 51.6° (Epoch: 14 December)

Date Brightness Start Highest point End Pass type
(mag) Time Alt. Az. Time Alt. Az. Time Alt. Az.
15 Dec -1.7 10:50:49 27° ENE 10:50:49 27° ENE 10:52:38 10° ENE visible
15 Dec -2.1 12:23:55 10° WNW 12:26:19 18° NNW 12:28:44 10° NNE visible
16 Dec -2.5 11:38:37 26° NNW 11:38:37 26° NNW 11:41:05 10° NNE visible
17 Dec -0.8 10:53:08 11° NE 10:53:08 11° NE 10:53:16 10° NE visible
18 Dec -1.2 11:40:22 11° N 11:40:22 11° N 11:40:44 10° N visible
